Point Lay, AK

1:40 AM AKDT on July 25, 2017 (GMT -0800)
Point Lay

Weather History for PPIZ - March, 2014

Change the Weather History Date:

Thursday, March 27, 2014

  Actual Average Record
Temperature  
Mean Temperature 10 °F -  
Max Temperature 18 °F 1 °F 21 °F (1998)
Min Temperature 4 °F -11 °F -35 °F (2012)
Degree Days  
Heating Degree Days 54    
Moisture  
Dew Point 3 °F    
Average Humidity 74    
Maximum Humidity 88    
Minimum Humidity 58    
Precipitation  
Precipitation 0.00 in - - ()
Sea Level Pressure  
Sea Level Pressure 30.03 in    
Wind  
Wind Speed 8 mph (SSE)    
Max Wind Speed 13 mph    
Max Gust Speed -    
Visibility 10 miles    
Events      
Averages and records for this station are not official NWS values.
T = Trace of Precipitation, MM = Missing Value Source: NWS Daily Summary

Daily Weather History Graph

Daily Weather History Graph

Search for Another Location

Airport or City:

Trip Planner

Search our weather history database for the weather conditions in past years. The results will help you decide how hot, cold, wet, or windy it might be!

Date:

Astronomy

Mar. 27, 2014 Rise Set
Actual Time 8:17 AM AKDT 9:39 PM AKDT
Civil Twilight 7:15 AM AKDT 10:42 PM AKDT
Nautical Twilight 5:50 AM AKDT 12:09 AM AKDT
Astronomical Twilight 3:29 AM AKDT 2:24 AM AKDT
Moon 7:54 AM AKDT (3/27) 5:15 PM AKDT (3/27)
Length of Visible Light 15h 27m
Length of Day
13h 21m
Waning Crescent, 12% of the Moon is Illuminated
Mar 27
Waning Crescent
Mar 30
New
Apr 7
First Quarter
Apr 14
Full
Apr 21
Last Quarter

Hourly Weather History & Observations

Time (AKDT) Temp. Windchill Dew Point Humidity Pressure Visibility Wind Dir Wind Speed Gust Speed Precip Events Conditions
12:56 AM 10.0 °F -1.9 °F -1.8 °F 59% 29.87 in 10.0 mi South 8.1 mph - N/A   Clear
1:56 AM 11.1 °F -0.6 °F -0.9 °F 58% 29.89 in 10.0 mi South 8.1 mph - N/A   Clear
2:56 AM 10.0 °F 1.8 °F 1.0 °F 67% 29.91 in 10.0 mi SSW 4.6 mph - N/A   Clear
3:56 AM 9.1 °F 0.8 °F 1.0 °F 70% 29.92 in 10.0 mi South 4.6 mph - N/A   Clear
4:56 AM 7.2 °F -6.4 °F -1.8 °F 67% 29.94 in 10.0 mi South 9.2 mph - N/A   Clear
5:56 AM 9.1 °F -3.0 °F 0.1 °F 67% 29.95 in 10.0 mi SSW 8.1 mph - N/A   Clear
6:56 AM 6.1 °F -2.8 °F -0.9 °F 73% 29.97 in 10.0 mi South 4.6 mph - N/A   Clear
7:56 AM 4.1 °F -8.0 °F -0.9 °F 80% 29.99 in 10.0 mi SSE 6.9 mph - N/A   Clear
8:56 AM 7.2 °F -7.3 °F 1.0 °F 76% 30.00 in 10.0 mi South 10.4 mph - N/A   Clear
9:56 AM 4.1 °F -10.2 °F -2.9 °F 73% 30.01 in 10.0 mi SSE 9.2 mph - N/A   Clear
10:56 AM 5.0 °F -8.1 °F -2.9 °F 70% 30.03 in 10.0 mi SSE 8.1 mph - N/A   Clear
11:56 AM 5.0 °F -10.0 °F -1.8 °F 73% 30.04 in 10.0 mi SE 10.4 mph - N/A   Clear
12:56 PM 7.2 °F -6.4 °F 1.0 °F 76% 30.05 in 10.0 mi SE 9.2 mph - N/A   Clear
1:56 PM 10.0 °F -0.9 °F 3.0 °F 73% 30.07 in 10.0 mi SE 6.9 mph - N/A   Clear
2:56 PM 13.1 °F -1.4 °F 5.0 °F 70% 30.08 in 10.0 mi SE 12.7 mph - N/A   Mostly Cloudy
3:56 PM 15.1 °F 4.2 °F 8.1 °F 74% 30.09 in 10.0 mi SSE 8.1 mph - N/A   Mostly Cloudy
4:56 PM 17.1 °F 4.3 °F 10.0 °F 74% 30.09 in 10.0 mi SSE 11.5 mph - N/A   Mostly Cloudy
5:56 PM 16.2 °F 5.5 °F 10.0 °F 77% 30.09 in 10.0 mi SSE 8.1 mph - N/A   Partly Cloudy
6:56 PM 14.0 °F 2.0 °F 9.1 °F 81% 30.10 in 10.0 mi SSE 9.2 mph - N/A   Clear
7:56 PM 14.0 °F 1.2 °F 9.1 °F 81% 30.10 in 10.0 mi South 10.4 mph - N/A   Clear
8:56 PM 13.1 °F 0.1 °F 9.1 °F 84% 30.10 in 10.0 mi South 10.4 mph - N/A   Clear
9:56 PM 12.0 °F 0.5 °F 9.1 °F 88% 30.11 in 10.0 mi SSE 8.1 mph - N/A   Overcast
10:56 PM 10.0 °F -5.2 °F 7.2 °F 88% 30.11 in 10.0 mi South 12.7 mph - N/A   Partly Cloudy
11:56 PM 8.1 °F -4.3 °F 4.1 °F 84% 30.12 in 10.0 mi SSE 8.1 mph - N/A   Clear